Weather History for Meadville, PA

Change the Weather History Date:

Sunday, April 13, 2014

  Actual Average Record
Temperature  
Mean Temperature 70 °F -  
Max Temperature 79 °F 57 °F 82 °F (1977)
Min Temperature 61 °F 32 °F 18 °F (1950)
Cooling Degree Days 4    
Growing Degree Days 20 (Base 50)    
Moisture  
Dew Point 45 °F    
Average Humidity 43    
Maximum Humidity 54    
Minimum Humidity 31    
Precipitation  
Precipitation 0.01 in - - ()
Sea Level Pressure  
Sea Level Pressure 29.86 in    
Wind  
Wind Speed 9 mph (SSW)    
Max Wind Speed 17 mph    
Max Gust Speed 31 mph    
Visibility 10 miles    
Events      
Averages and records for this station are not official NWS values.
T = Trace of Precipitation, MM = Missing Value Source: NWS Daily Summary

Daily Weather History Graph

Daily Weather History Graph

Search for Another Location

Airport:

Trip Planner

Search our weather history database for the weather conditions in past years. The results will help you decide how hot, cold, wet, or windy it might be!

Date:

Astronomy

Apr. 13, 2014 Rise Set
Actual Time 6:44 AM EDT 7:59 PM EDT
Civil Twilight 6:15 AM EDT 8:28 PM EDT
Nautical Twilight 5:41 AM EDT 9:02 PM EDT
Astronomical Twilight 5:05 AM EDT 9:38 PM EDT
Moon 6:34 PM EDT (4/13) 5:43 AM EDT (4/13)
Length of Visible Light 14h 12m
Length of Day
13h 15m
Waxing Gibbous, 97% of the Moon is Illuminated
Apr 13
Waxing Gibbous
Apr 15
Full
Apr 22
Last Quarter
Apr 29
New
May 6
First Quarter

Hourly Weather History & Observations

Time (EDT) Temp. Dew Point Humidity Pressure Visibility Wind Dir Wind Speed Gust Speed Precip Events Conditions
12:53 AM 62.1 °F 30.9 °F 31% 29.92 in 10.0 mi SE 4.6 mph - N/A   Overcast
1:53 AM 61.0 °F 30.9 °F 32% 29.91 in 10.0 mi Variable 4.6 mph - N/A   Overcast
2:53 AM 62.1 °F 35.1 °F 37% 29.90 in 10.0 mi SSE 5.8 mph - N/A   Overcast
3:53 AM 61.0 °F 39.0 °F 44% 29.90 in 10.0 mi South 8.1 mph - N/A   Overcast
4:53 AM 61.0 °F 42.1 °F 50% 29.89 in 10.0 mi South 8.1 mph - 0.01 in   Mostly Cloudy
5:53 AM 61.0 °F 43.0 °F 52% 29.89 in 10.0 mi South 8.1 mph - N/A   Mostly Cloudy
6:53 AM 61.0 °F 44.1 °F 54% 29.91 in 10.0 mi South 8.1 mph - N/A   Clear
7:53 AM 62.1 °F 45.0 °F 53% 29.91 in 10.0 mi South 11.5 mph - N/A   Partly Cloudy
8:53 AM 64.9 °F 46.9 °F 52% 29.92 in 10.0 mi SSW 15.0 mph 25.3 mph N/A   Mostly Cloudy
9:53 AM 68.0 °F 48.9 °F 50% 29.90 in 10.0 mi SW 17.3 mph 25.3 mph N/A   Clear
10:53 AM 70.0 °F 50.0 °F 49% 29.91 in 10.0 mi SW 15.0 mph 20.7 mph N/A   Mostly Cloudy
11:53 AM 72.0 °F 51.1 °F 48% 29.87 in 10.0 mi SSW 12.7 mph 26.5 mph N/A   Mostly Cloudy
12:53 PM 73.9 °F 52.0 °F 46% 29.86 in 10.0 mi SSW 17.3 mph 25.3 mph N/A   Mostly Cloudy
1:53 PM 75.0 °F 50.0 °F 41% 29.85 in 10.0 mi SW 16.1 mph 31.1 mph N/A   Scattered Clouds
2:53 PM 75.9 °F 51.1 °F 42% 29.85 in 10.0 mi SW 13.8 mph 26.5 mph N/A   Scattered Clouds
3:53 PM 77.0 °F 51.1 °F 40% 29.83 in 10.0 mi SW 15.0 mph 26.5 mph N/A   Scattered Clouds
4:53 PM 78.1 °F 50.0 °F 37% 29.82 in 10.0 mi SW 10.4 mph 27.6 mph N/A   Clear
5:53 PM 75.9 °F 48.9 °F 38% 29.83 in 10.0 mi SSW 12.7 mph 20.7 mph N/A   Clear
6:53 PM 75.9 °F 46.9 °F 36% 29.82 in 10.0 mi SSW 8.1 mph - N/A   Clear
7:53 PM 73.9 °F 46.9 °F 38% 29.81 in 10.0 mi SSW 10.4 mph - N/A   Clear
8:53 PM 71.1 °F 46.9 °F 42% 29.81 in 10.0 mi South 5.8 mph - N/A   Clear
9:53 PM 70.0 °F 46.9 °F 44% 29.81 in 10.0 mi South 4.6 mph - N/A   Clear
10:53 PM 66.9 °F 46.0 °F 47% 29.79 in 10.0 mi Calm Calm - N/A   Clear
11:53 PM 69.1 °F 44.1 °F 40% 29.77 in 10.0 mi Variable 3.5 mph - N/A   Clear